Terminal Aerodrome Forecast
Issued by NWS Hastings, NE

Home | Current Version | Previous Version | Text Only | Print | Product List | Glossary On
Versions: 1 2 3 4 5 6 7 8 9 10 11 12 13 14 15 16 17 18 19 20 21 22 23 24 25 26 27 28 29 30 31 32 33 34 35 36 37
000
FTUS43 KGID 011139
TAFGRI
TAF
KGRI 011139Z 0112/0212 35025G34KT 3/4SM -SN BR OVC015
     FM011700 34024G33KT 2SM -SN BR SCT015 OVC025
     FM012200 34015G25KT P6SM BKN025
     FM020100 33011KT P6SM SCT025
     FM020900 27006KT P6SM SKC=

USA.gov is the U.S. government's official web portal to all federal, state and local government web resources and services.